Time,TemperatureF,DewpointF,PressureIn,WindDirection,WindDirectionDegrees,WindSpeedMPH,WindSpeedGustMPH,Humidity,HourlyPrecipIn,Conditions,Clouds,dailyrainin,SoftwareType,DateUTC
2013-01-22 00:00:00,27.5,10.4,29.89,WNW,293,0.4,1.8,48,0.00,,,0.00,WUHU216HW,2013-01-22 05:00:00,
2013-01-22 00:06:00,27.4,10.2,29.88,North,0,1.1,1.3,48,0.00,,,0.00,WUHU216HW,2013-01-22 05:06:00,
2013-01-22 00:11:00,27.4,10.2,29.88,North,0,2.2,2.2,48,0.00,,,0.00,WUHU216HW,2013-01-22 05:11:00,
2013-01-22 00:16:00,27.2,10.0,29.89,WNW,293,0.4,2.7,48,0.00,,,0.00,WUHU216HW,2013-01-22 05:16:00,
2013-01-22 00:21:00,27.2,10.0,29.88,NNW,338,0.4,2.7,48,0.00,,,0.00,WUHU216HW,2013-01-22 05:21:00,
2013-01-22 00:26:00,27.0,9.8,29.88,SSW,203,4.0,4.0,48,0.00,,,0.00,WUHU216HW,2013-01-22 05:26:00,
2013-01-22 00:31:00,27.0,9.8,29.89,NW,315,0.2,4.0,48,0.00,,,0.00,WUHU216HW,2013-01-22 05:31:00,
2013-01-22 00:36:00,26.8,9.6,29.87,NW,315,0.9,2.7,48,0.00,,,0.00,WUHU216HW,2013-01-22 05:36:00,
2013-01-22 00:41:00,26.6,9.5,29.88,NNE,23,1.1,2.7,48,0.00,,,0.00,WUHU216HW,2013-01-22 05:41:00,
2013-01-22 00:46:00,26.6,9.0,29.88,North,0,1.1,1.8,47,0.00,,,0.00,WUHU216HW,2013-01-22 05:46:00,
2013-01-22 00:51:00,26.5,8.8,29.88,NNE,23,1.1,1.8,47,0.00,,,0.00,WUHU216HW,2013-01-22 05:51:00,
2013-01-22 00:56:00,26.3,9.2,29.88,East,90,2.5,2.5,48,0.00,,,0.00,WUHU216HW,2013-01-22 05:56:00,
2013-01-22 01:01:00,26.1,8.5,29.87,West,270,1.3,2.5,47,0.00,,,0.00,WUHU216HW,2013-01-22 06:01:00,
2013-01-22 01:06:00,25.9,8.4,29.87,NNW,338,0.4,2.0,47,0.00,,,0.00,WUHU216HW,2013-01-22 06:06:00,
2013-01-22 01:11:00,25.7,8.6,29.88,WSW,248,2.5,2.5,48,0.00,,,0.00,WUHU216HW,2013-01-22 06:11:00,
2013-01-22 01:16:00,25.7,8.6,29.87,WNW,293,0.7,2.5,48,0.00,,,0.00,WUHU216HW,2013-01-22 06:16:00,
2013-01-22 01:21:00,25.6,8.5,29.87,East,90,2.9,3.4,48,0.00,,,0.00,WUHU216HW,2013-01-22 06:21:00,
2013-01-22 01:26:00,25.6,8.5,29.87,West,270,0.4,3.4,48,0.00,,,0.00,WUHU216HW,2013-01-22 06:26:00,
2013-01-22 01:31:00,25.4,8.4,29.87,NW,315,1.8,2.0,48,0.00,,,0.00,WUHU216HW,2013-01-22 06:31:00,
2013-01-22 01:36:00,25.4,8.4,29.87,North,0,0.4,2.2,48,0.00,,,0.00,WUHU216HW,2013-01-22 06:36:00,
2013-01-22 01:41:00,25.4,8.4,29.86,NNW,338,0.7,2.2,48,0.00,,,0.00,WUHU216HW,2013-01-22 06:41:00,
2013-01-22 01:46:00,25.2,8.6,29.86,NW,315,0.4,1.3,49,0.00,,,0.00,WUHU216HW,2013-01-22 06:46:00,
2013-01-22 01:51:00,25.2,8.6,29.83,NNE,23,2.0,2.0,49,0.00,,,0.00,WUHU216HW,2013-01-22 06:51:00,
2013-01-22 01:56:00,25.2,8.6,29.83,North,0,1.8,2.0,49,0.00,,,0.00,WUHU216HW,2013-01-22 06:56:00,
2013-01-22 02:01:00,25.2,8.6,29.83,East,90,0.4,2.5,49,0.00,,,0.00,WUHU216HW,2013-01-22 07:01:00,
2013-01-22 02:06:00,25.2,8.6,29.84,WNW,293,1.1,2.5,49,0.00,,,0.00,WUHU216HW,2013-01-22 07:06:00,
2013-01-22 02:11:00,25.2,8.6,29.83,NNE,23,1.1,2.5,49,0.00,,,0.00,WUHU216HW,2013-01-22 07:11:00,
2013-01-22 02:16:00,25.2,8.6,29.83,NNE,23,0.4,1.8,49,0.00,,,0.00,WUHU216HW,2013-01-22 07:16:00,
2013-01-22 02:21:00,25.0,9.0,29.84,NNW,338,0.7,2.0,50,0.00,,,0.00,WUHU216HW,2013-01-22 07:21:00,
2013-01-22 02:26:00,25.0,9.0,29.88,ENE,68,0.9,2.9,50,0.00,,,0.00,WUHU216HW,2013-01-22 07:26:00,
2013-01-22 02:31:00,24.8,8.8,29.87,North,0,1.1,2.9,50,0.00,,,0.00,WUHU216HW,2013-01-22 07:31:00,
2013-01-22 02:36:00,24.8,8.8,29.88,North,0,1.8,2.7,50,0.00,,,0.00,WUHU216HW,2013-01-22 07:36:00,
2013-01-22 02:41:00,24.8,8.8,29.87,NNW,338,0.4,1.8,50,0.00,,,0.00,WUHU216HW,2013-01-22 07:41:00,
2013-01-22 02:46:00,24.8,8.8,29.87,North,0,1.1,1.1,50,0.00,,,0.00,WUHU216HW,2013-01-22 07:46:00,
2013-01-22 02:51:00,24.8,8.8,29.87,NNE,23,1.8,1.8,50,0.00,,,0.00,WUHU216HW,2013-01-22 07:51:00,
2013-01-22 02:56:00,24.8,9.3,29.88,NW,315,0.7,2.5,51,0.00,,,0.00,WUHU216HW,2013-01-22 07:56:00,
2013-01-22 03:01:00,24.8,9.3,29.88,ESE,113,1.8,2.5,51,0.00,,,0.00,WUHU216HW,2013-01-22 08:01:00,
2013-01-22 03:06:00,24.8,9.3,29.87,NNE,23,0.4,3.6,51,0.00,,,0.00,WUHU216HW,2013-01-22 08:06:00,
2013-01-22 03:11:00,24.8,9.3,29.87,East,90,2.0,3.6,51,0.00,,,0.00,WUHU216HW,2013-01-22 08:11:00,
2013-01-22 03:16:00,24.8,9.3,29.87,SE,135,0.9,2.5,51,0.00,,,0.00,WUHU216HW,2013-01-22 08:16:00,
2013-01-22 03:21:00,25.0,9.4,29.87,North,0,1.1,3.1,51,0.00,,,0.00,WUHU216HW,2013-01-22 08:21:00,
2013-01-22 03:26:00,25.0,9.4,29.87,SE,135,1.8,3.1,51,0.00,,,0.00,WUHU216HW,2013-01-22 08:26:00,
2013-01-22 03:31:00,25.0,9.4,29.87,SW,225,0.2,2.5,51,0.00,,,0.00,WUHU216HW,2013-01-22 08:31:00,
2013-01-22 03:36:00,25.0,9.4,29.86,NNE,23,1.1,3.1,51,0.00,,,0.00,WUHU216HW,2013-01-22 08:36:00,
2013-01-22 03:41:00,25.0,9.4,29.86,NW,315,2.7,3.1,51,0.00,,,0.00,WUHU216HW,2013-01-22 08:41:00,
2013-01-22 03:46:00,25.0,9.4,29.87,North,0,3.1,3.1,51,0.00,,,0.00,WUHU216HW,2013-01-22 08:46:00,
2013-01-22 03:51:00,24.8,8.8,29.86,NNE,23,1.1,3.1,50,0.00,,,0.00,WUHU216HW,2013-01-22 08:51:00,
2013-01-22 03:56:00,24.8,8.8,29.85,NE,45,1.1,2.7,50,0.00,,,0.00,WUHU216HW,2013-01-22 08:56:00,
2013-01-22 04:01:00,24.8,8.8,29.86,North,0,0.4,2.2,50,0.00,,,0.00,WUHU216HW,2013-01-22 09:01:00,
2013-01-22 04:06:00,24.8,8.4,29.86,WSW,248,0.7,3.6,49,0.00,,,0.00,WUHU216HW,2013-01-22 09:06:00,
2013-01-22 04:11:00,24.7,8.6,29.85,WNW,293,0.4,3.6,50,0.00,,,0.00,WUHU216HW,2013-01-22 09:11:00,
2013-01-22 04:16:00,24.7,8.2,29.85,WSW,248,1.8,2.5,49,0.00,,,0.00,WUHU216HW,2013-01-22 09:16:00,
2013-01-22 04:21:00,24.5,8.0,29.86,NNE,23,1.1,2.5,49,0.00,,,0.00,WUHU216HW,2013-01-22 09:21:00,
2013-01-22 04:26:00,24.3,7.8,29.87,ENE,68,2.0,2.7,49,0.00,,,0.00,WUHU216HW,2013-01-22 09:26:00,
2013-01-22 04:31:00,24.3,7.4,29.87,ENE,68,0.7,2.7,48,0.00,,,0.00,WUHU216HW,2013-01-22 09:31:00,
2013-01-22 04:36:00,24.1,7.7,29.87,WNW,293,1.1,1.6,49,0.00,,,0.00,WUHU216HW,2013-01-22 09:36:00,
2013-01-22 04:41:00,24.1,7.2,29.87,ENE,68,1.6,2.5,48,0.00,,,0.00,WUHU216HW,2013-01-22 09:41:00,
2013-01-22 04:46:00,24.1,7.2,29.87,NE,45,2.7,2.7,48,0.00,,,0.00,WUHU216HW,2013-01-22 09:46:00,
2013-01-22 04:51:00,24.1,7.2,29.86,West,270,1.8,4.0,48,0.00,,,0.00,WUHU216HW,2013-01-22 09:51:00,
2013-01-22 04:56:00,23.9,7.0,29.87,NW,315,0.4,4.0,48,0.00,,,0.00,WUHU216HW,2013-01-22 09:56:00,
2013-01-22 05:01:00,23.8,6.8,29.87,NE,45,0.4,1.3,48,0.00,,,0.00,WUHU216HW,2013-01-22 10:01:00,
2013-01-22 05:06:00,23.8,6.8,29.87,NNE,23,0.0,1.8,48,0.00,,,0.00,WUHU216HW,2013-01-22 10:06:00,
2013-01-22 05:11:00,23.8,6.8,29.87,West,270,0.4,2.5,48,0.00,,,0.00,WUHU216HW,2013-01-22 10:11:00,
2013-01-22 05:16:00,23.8,6.4,29.87,SE,135,0.7,2.5,47,0.00,,,0.00,WUHU216HW,2013-01-22 10:16:00,
2013-01-22 05:21:00,23.8,6.4,29.89,North,0,0.2,1.8,47,0.00,,,0.00,WUHU216HW,2013-01-22 10:21:00,
2013-01-22 05:26:00,23.8,6.4,29.88,NNW,338,0.2,1.6,47,0.00,,,0.00,WUHU216HW,2013-01-22 10:26:00,
2013-01-22 05:31:00,23.8,6.0,29.88,North,0,1.1,1.6,46,0.00,,,0.00,WUHU216HW,2013-01-22 10:31:00,
2013-01-22 05:36:00,23.8,6.0,29.88,SSW,203,1.1,1.1,46,0.00,,,0.00,WUHU216HW,2013-01-22 10:36:00,
2013-01-22 05:41:00,23.8,6.4,29.89,SE,135,0.0,1.3,47,0.00,,,0.00,WUHU216HW,2013-01-22 10:41:00,
2013-01-22 05:46:00,23.6,6.2,29.91,South,180,0.2,1.3,47,0.00,,,0.00,WUHU216HW,2013-01-22 10:46:00,
2013-01-22 05:51:00,23.4,6.6,29.89,NNW,338,0.4,0.4,48,0.00,,,0.00,WUHU216HW,2013-01-22 10:51:00,
2013-01-22 05:56:00,23.4,6.0,29.90,North,0,0.0,0.4,47,0.00,,,0.00,WUHU216HW,2013-01-22 10:56:00,
2013-01-22 06:01:00,23.2,6.0,29.90,WSW,248,0.2,0.4,47,0.00,,,0.00,WUHU216HW,2013-01-22 11:01:00,
2013-01-22 06:06:00,23.0,5.8,29.91,SE,135,0.4,0.7,47,0.00,,,0.00,WUHU216HW,2013-01-22 11:06:00,
2013-01-22 06:11:00,22.7,5.9,29.91,NW,315,1.6,1.6,48,0.00,,,0.00,WUHU216HW,2013-01-22 11:11:00,
2013-01-22 06:16:00,22.7,5.9,29.91,SSW,203,0.0,1.6,48,0.00,,,0.00,WUHU216HW,2013-01-22 11:16:00,
2013-01-22 06:21:00,22.5,5.7,29.91,SSE,158,0.0,0.9,48,0.00,,,0.00,WUHU216HW,2013-01-22 11:21:00,
2013-01-22 06:26:00,22.3,5.5,29.91,SE,135,0.0,1.1,48,0.00,,,0.00,WUHU216HW,2013-01-22 11:26:00,
2013-01-22 06:31:00,22.1,5.3,29.92,SE,135,0.0,1.1,48,0.00,,,0.00,WUHU216HW,2013-01-22 11:31:00,
2013-01-22 06:36:00,22.0,5.1,29.92,SW,225,0.2,1.8,48,0.00,,,0.00,WUHU216HW,2013-01-22 11:36:00,
2013-01-22 06:42:00,22.0,5.7,29.92,South,180,0.0,1.8,49,0.00,,,0.00,WUHU216HW,2013-01-22 11:42:00,
2013-01-22 06:47:00,22.0,5.7,29.92,SW,225,0.4,0.4,49,0.00,,,0.00,WUHU216HW,2013-01-22 11:47:00,
2013-01-22 06:52:00,21.8,5.5,29.92,SSE,158,0.2,0.4,49,0.00,,,0.00,WUHU216HW,2013-01-22 11:52:00,
2013-01-22 06:57:00,21.6,5.3,29.92,WSW,248,0.2,0.9,49,0.00,,,0.00,WUHU216HW,2013-01-22 11:57:00,
2013-01-22 07:02:00,21.6,5.3,29.92,WSW,248,0.0,0.9,49,0.00,,,0.00,WUHU216HW,2013-01-22 12:02:00,
2013-01-22 07:07:00,21.4,5.1,29.93,SSW,203,0.0,0.7,49,0.00,,,0.00,WUHU216HW,2013-01-22 12:07:00,
2013-01-22 07:12:00,21.2,5.0,29.93,ESE,113,0.2,0.7,49,0.00,,,0.00,WUHU216HW,2013-01-22 12:12:00,
2013-01-22 07:17:00,21.2,5.0,29.92,East,90,0.2,0.4,49,0.00,,,0.00,WUHU216HW,2013-01-22 12:17:00,
2013-01-22 07:22:00,21.2,5.0,29.93,North,0,0.4,0.4,49,0.00,,,0.00,WUHU216HW,2013-01-22 12:22:00,
2013-01-22 07:27:00,21.2,5.0,29.92,ESE,113,0.4,0.4,49,0.00,,,0.00,WUHU216HW,2013-01-22 12:27:00,
2013-01-22 07:32:00,21.1,4.8,29.92,WNW,293,0.4,1.1,49,0.00,,,0.00,WUHU216HW,2013-01-22 12:32:00,
2013-01-22 07:37:00,20.9,4.6,29.94,NNE,23,0.9,1.3,49,0.00,,,0.00,WUHU216HW,2013-01-22 12:37:00,
2013-01-22 07:42:00,20.9,4.6,29.94,SE,135,0.9,1.3,49,0.00,,,0.00,WUHU216HW,2013-01-22 12:42:00,
2013-01-22 07:47:00,20.7,4.4,29.92,West,270,0.2,1.1,49,0.00,,,0.00,WUHU216HW,2013-01-22 12:47:00,
2013-01-22 07:52:00,20.7,5.0,29.93,NE,45,1.8,1.8,50,0.00,,,0.00,WUHU216HW,2013-01-22 12:52:00,
2013-01-22 07:57:00,20.5,4.3,29.94,North,0,0.4,1.8,49,0.00,,,0.00,WUHU216HW,2013-01-22 12:57:00,
2013-01-22 08:02:00,20.5,4.8,29.94,North,0,0.2,1.8,50,0.00,,,0.00,WUHU216HW,2013-01-22 13:02:00,
2013-01-22 08:07:00,20.5,4.8,29.94,West,270,0.4,1.1,50,0.00,,,0.00,WUHU216HW,2013-01-22 13:07:00,
2013-01-22 08:12:00,20.5,4.8,29.96,SE,135,0.2,1.1,50,0.00,,,0.00,WUHU216HW,2013-01-22 13:12:00,
2013-01-22 08:17:00,20.3,4.6,29.95,WNW,293,0.2,1.1,50,0.00,,,0.00,WUHU216HW,2013-01-22 13:17:00,
2013-01-22 08:22:00,20.3,4.6,29.95,WNW,293,0.4,1.1,50,0.00,,,0.00,WUHU216HW,2013-01-22 13:22:00,
2013-01-22 08:27:00,20.3,4.6,29.95,North,0,0.0,0.9,50,0.00,,,0.00,WUHU216HW,2013-01-22 13:27:00,
2013-01-22 08:32:00,20.5,4.8,29.96,NE,45,0.9,0.9,50,0.00,,,0.00,WUHU216HW,2013-01-22 13:32:00,
2013-01-22 08:37:00,20.3,4.6,29.96,West,270,0.9,1.6,50,0.00,,,0.00,WUHU216HW,2013-01-22 13:37:00,
2013-01-22 08:42:00,20.3,4.6,29.96,NNE,23,0.0,1.6,50,0.00,,,0.00,WUHU216HW,2013-01-22 13:42:00,
2013-01-22 08:47:00,20.3,4.6,29.97,North,0,1.1,1.1,50,0.00,,,0.00,WUHU216HW,2013-01-22 13:47:00,
2013-01-22 08:52:00,20.3,4.6,29.97,SSE,158,0.4,2.5,50,0.00,,,0.00,WUHU216HW,2013-01-22 13:52:00,
2013-01-22 08:57:00,20.3,4.6,29.96,SSW,203,0.4,2.5,50,0.00,,,0.00,WUHU216HW,2013-01-22 13:57:00,
2013-01-22 09:02:00,20.5,5.1,29.96,NNW,338,0.2,1.1,51,0.00,,,0.00,WUHU216HW,2013-01-22 14:02:00,
2013-01-22 09:07:00,20.5,4.8,29.97,South,180,0.0,1.1,50,0.00,,,0.00,WUHU216HW,2013-01-22 14:07:00,
2013-01-22 09:12:00,20.7,5.3,29.97,NNE,23,1.1,1.8,51,0.00,,,0.00,WUHU216HW,2013-01-22 14:12:00,
2013-01-22 09:17:00,20.7,5.0,29.98,SSE,158,0.2,1.8,50,0.00,,,0.00,WUHU216HW,2013-01-22 14:17:00,
2013-01-22 09:22:00,20.9,5.0,29.97,NNW,338,0.2,1.1,50,0.00,,,0.00,WUHU216HW,2013-01-22 14:22:00,
2013-01-22 09:27:00,21.1,5.7,29.99,NNE,23,1.1,1.3,51,0.00,,,0.00,WUHU216HW,2013-01-22 14:27:00,
2013-01-22 09:32:00,21.1,5.2,29.98,NW,315,0.4,1.3,50,0.00,,,0.00,WUHU216HW,2013-01-22 14:32:00,
2013-01-22 09:38:00,21.2,5.4,29.98,NNW,338,0.7,0.9,50,0.00,,,0.00,WUHU216HW,2013-01-22 14:38:00,
2013-01-22 09:43:00,21.4,5.6,29.99,NNW,338,1.1,1.1,50,0.00,,,0.00,WUHU216HW,2013-01-22 14:43:00,
2013-01-22 09:48:00,21.6,6.2,29.99,South,180,0.0,1.1,51,0.00,,,0.00,WUHU216HW,2013-01-22 14:48:00,
2013-01-22 09:53:00,22.0,6.6,29.99,East,90,0.0,1.1,51,0.00,,,0.00,WUHU216HW,2013-01-22 14:53:00,
2013-01-22 09:58:00,22.0,6.1,29.99,SE,135,0.2,1.8,50,0.00,,,0.00,WUHU216HW,2013-01-22 14:58:00,
2013-01-22 10:03:00,22.1,6.3,30.00,NW,315,0.4,1.8,50,0.00,,,0.00,WUHU216HW,2013-01-22 15:03:00,
2013-01-22 10:08:00,22.3,6.5,30.00,NNE,23,0.2,0.7,50,0.00,,,0.00,WUHU216HW,2013-01-22 15:08:00,
2013-01-22 10:13:00,22.5,6.7,30.00,NNW,338,0.0,1.1,50,0.00,,,0.00,WUHU216HW,2013-01-22 15:13:00,
2013-01-22 10:18:00,22.7,6.8,30.00,NW,315,0.0,1.1,50,0.00,,,0.00,WUHU216HW,2013-01-22 15:18:00,
2013-01-22 10:23:00,23.0,7.2,30.01,SSE,158,1.3,1.3,50,0.00,,,0.00,WUHU216HW,2013-01-22 15:23:00,
2013-01-22 10:28:00,23.4,7.0,30.01,NW,315,0.0,1.3,49,0.00,,,0.00,WUHU216HW,2013-01-22 15:28:00,
2013-01-22 10:33:00,23.4,7.0,30.02,NW,315,0.7,1.3,49,0.00,,,0.00,WUHU216HW,2013-01-22 15:33:00,
2013-01-22 10:38:00,23.6,7.2,30.02,South,180,0.4,1.3,49,0.00,,,0.00,WUHU216HW,2013-01-22 15:38:00,
2013-01-22 10:43:00,24.3,7.4,30.01,SSE,158,0.0,0.7,48,0.00,,,0.00,WUHU216HW,2013-01-22 15:43:00,
2013-01-22 10:48:00,24.8,7.8,30.01,East,90,1.1,1.1,48,0.00,,,0.00,WUHU216HW,2013-01-22 15:48:00,
2013-01-22 10:53:00,24.8,7.8,30.02,NW,315,0.2,1.1,48,0.00,,,0.00,WUHU216HW,2013-01-22 15:53:00,
2013-01-22 10:58:00,25.0,8.0,30.02,South,180,0.0,0.9,48,0.00,,,0.00,WUHU216HW,2013-01-22 15:58:00,
2013-01-22 11:03:00,25.6,8.5,30.02,ESE,113,0.0,0.9,48,0.00,,,0.00,WUHU216HW,2013-01-22 16:03:00,
2013-01-22 11:08:00,25.6,8.5,30.02,North,0,0.0,0.9,48,0.00,,,0.00,WUHU216HW,2013-01-22 16:08:00,
2013-01-22 11:13:00,25.6,8.0,30.03,South,180,0.9,1.1,47,0.00,,,0.00,WUHU216HW,2013-01-22 16:13:00,
2013-01-22 11:18:00,25.6,8.0,30.02,NW,315,0.4,1.1,47,0.00,,,0.00,WUHU216HW,2013-01-22 16:18:00,
2013-01-22 11:23:00,25.9,7.8,30.02,North,0,0.4,0.7,46,0.00,,,0.00,WUHU216HW,2013-01-22 16:23:00,
2013-01-22 11:28:00,27.4,9.2,30.02,North,0,0.2,0.4,46,0.00,,,0.00,WUHU216HW,2013-01-22 16:28:00,
2013-01-22 11:33:00,28.4,9.7,30.04,North,0,0.2,0.4,45,0.00,,,0.00,WUHU216HW,2013-01-22 16:33:00,
2013-01-22 11:38:00,28.4,9.2,30.03,West,270,0.2,0.9,44,0.00,,,0.00,WUHU216HW,2013-01-22 16:38:00,
2013-01-22 11:43:00,28.3,8.6,30.03,West,270,0.2,0.9,43,0.00,,,0.00,WUHU216HW,2013-01-22 16:43:00,
2013-01-22 11:48:00,27.7,7.6,30.03,North,0,1.3,1.3,42,0.00,,,0.00,WUHU216HW,2013-01-22 16:48:00,
2013-01-22 11:53:00,27.5,7.4,30.02,NE,45,0.2,1.3,42,0.00,,,0.00,WUHU216HW,2013-01-22 16:53:00,
2013-01-22 11:58:00,27.4,7.2,30.02,WNW,293,0.9,1.8,42,0.00,,,0.00,WUHU216HW,2013-01-22 16:58:00,
2013-01-22 12:03:00,27.4,6.8,30.02,ENE,68,0.2,1.8,41,0.00,,,0.00,WUHU216HW,2013-01-22 17:03:00,
2013-01-22 12:08:00,27.4,6.8,30.02,North,0,0.7,1.1,41,0.00,,,0.00,WUHU216HW,2013-01-22 17:08:00,
2013-01-22 12:13:00,27.4,6.8,30.02,WNW,293,0.0,1.3,41,0.00,,,0.00,WUHU216HW,2013-01-22 17:13:00,
2013-01-22 12:18:00,27.5,6.8,30.01,NNW,338,0.0,1.3,41,0.00,,,0.00,WUHU216HW,2013-01-22 17:18:00,
2013-01-22 12:24:00,27.7,7.0,30.01,NE,45,1.1,1.1,41,0.00,,,0.00,WUHU216HW,2013-01-22 17:24:00,
2013-01-22 12:29:00,28.1,6.8,30.01,North,0,0.7,1.1,40,0.00,,,0.00,WUHU216HW,2013-01-22 17:29:00,
2013-01-22 12:34:00,28.4,7.2,30.01,SE,135,0.0,1.1,40,0.00,,,0.00,WUHU216HW,2013-01-22 17:34:00,
2013-01-22 12:39:00,29.3,6.8,30.00,NW,315,1.3,2.0,38,0.00,,,0.00,WUHU216HW,2013-01-22 17:39:00,
2013-01-22 12:44:00,29.9,6.6,30.00,North,0,0.9,2.0,37,0.00,,,0.00,WUHU216HW,2013-01-22 17:44:00,
2013-01-22 12:49:00,30.6,6.7,30.01,NNW,338,0.7,1.6,36,0.00,,,0.00,WUHU216HW,2013-01-22 17:49:00,
2013-01-22 12:54:00,31.3,6.7,30.02,NE,45,0.9,1.6,35,0.00,,,0.00,WUHU216HW,2013-01-22 17:54:00,
2013-01-22 12:59:00,32.0,6.0,30.01,NE,45,0.7,1.6,33,0.00,,,0.00,WUHU216HW,2013-01-22 17:59:00,
2013-01-22 13:04:00,32.4,5.8,29.99,NE,45,1.3,1.6,32,0.00,,,0.00,WUHU216HW,2013-01-22 18:04:00,
2013-01-22 13:09:00,32.8,5.4,30.01,NNE,23,1.1,4.0,31,0.00,,,0.00,WUHU216HW,2013-01-22 18:09:00,
2013-01-22 13:14:00,33.3,6.0,30.00,WNW,293,0.4,4.0,31,0.00,,,0.00,WUHU216HW,2013-01-22 18:14:00,
2013-01-22 13:19:00,34.6,7.7,30.01,East,90,1.1,3.8,32,0.00,,,0.00,WUHU216HW,2013-01-22 18:19:00,
2013-01-22 13:24:00,37.6,9.0,30.00,NW,315,0.4,2.0,30,0.00,,,0.00,WUHU216HW,2013-01-22 18:24:00,
2013-01-22 13:29:00,38.3,8.7,30.01,SE,135,0.4,2.7,29,0.00,,,0.00,WUHU216HW,2013-01-22 18:29:00,
2013-01-22 13:34:00,38.5,7.1,29.99,NNW,338,0.2,4.5,27,0.00,,,0.00,WUHU216HW,2013-01-22 18:34:00,
2013-01-22 13:39:00,36.7,6.4,29.99,North,0,0.4,4.5,28,0.00,,,0.00,WUHU216HW,2013-01-22 18:39:00,
2013-01-22 13:44:00,34.9,5.8,29.99,North,0,1.3,1.6,29,0.00,,,0.00,WUHU216HW,2013-01-22 18:44:00,
2013-01-22 13:49:00,33.5,5.4,30.00,WNW,293,0.2,1.8,30,0.00,,,0.00,WUHU216HW,2013-01-22 18:49:00,
2013-01-22 13:54:00,33.5,6.0,30.00,NE,45,0.4,1.8,31,0.00,,,0.00,WUHU216HW,2013-01-22 18:54:00,
2013-01-22 13:59:00,33.3,6.0,30.00,NNW,338,0.7,3.4,31,0.00,,,0.00,WUHU216HW,2013-01-22 18:59:00,
2013-01-22 14:04:00,32.6,5.2,30.00,NW,315,0.9,3.4,31,0.00,,,0.00,WUHU216HW,2013-01-22 19:04:00,
2013-01-22 14:09:00,32.2,5.6,29.99,North,0,0.9,3.4,32,0.00,,,0.00,WUHU216HW,2013-01-22 19:09:00,
2013-01-22 14:15:00,33.5,6.7,29.99,West,270,2.5,3.4,32,0.00,,,0.00,WUHU216HW,2013-01-22 19:15:00,
2013-01-22 14:20:00,34.2,7.3,29.98,NW,315,0.7,3.8,32,0.00,,,0.00,WUHU216HW,2013-01-22 19:20:00,
2013-01-22 14:25:00,35.1,7.4,29.99,NNW,338,1.1,3.8,31,0.00,,,0.00,WUHU216HW,2013-01-22 19:25:00,
2013-01-22 14:30:00,34.9,6.7,29.99,WNW,293,3.6,3.6,30,0.00,,,0.00,WUHU216HW,2013-01-22 19:30:00,
2013-01-22 14:35:00,34.2,6.7,30.00,North,0,1.6,3.6,31,0.00,,,0.00,WUHU216HW,2013-01-22 19:35:00,
2013-01-22 14:40:00,33.5,5.4,29.99,NW,315,2.2,4.5,30,0.00,,,0.00,WUHU216HW,2013-01-22 19:40:00,
2013-01-22 14:45:00,33.7,6.2,29.99,West,270,1.3,4.5,31,0.00,,,0.00,WUHU216HW,2013-01-22 19:45:00,
2013-01-22 14:50:00,33.5,6.7,29.99,North,0,1.3,1.8,32,0.00,,,0.00,WUHU216HW,2013-01-22 19:50:00,
2013-01-22 14:55:00,34.0,7.2,29.98,West,270,1.1,1.8,32,0.00,,,0.00,WUHU216HW,2013-01-22 19:55:00,
2013-01-22 15:00:00,33.8,7.0,29.99,North,0,1.8,2.0,32,0.00,,,0.00,WUHU216HW,2013-01-22 20:00:00,
2013-01-22 15:05:00,34.6,7.7,29.99,WNW,293,0.2,2.0,32,0.00,,,0.00,WUHU216HW,2013-01-22 20:05:00,
2013-01-22 15:10:00,35.1,8.0,29.99,NNW,338,3.6,3.6,32,0.00,,,0.00,WUHU216HW,2013-01-22 20:10:00,
2013-01-22 15:15:00,35.3,8.2,29.99,NNE,23,0.7,3.8,32,0.00,,,0.00,WUHU216HW,2013-01-22 20:15:00,
2013-01-22 15:20:00,36.2,9.0,29.99,NNE,23,1.1,3.8,32,0.00,,,0.00,WUHU216HW,2013-01-22 20:20:00,
2013-01-22 15:25:00,36.5,8.6,29.99,West,270,1.1,1.1,31,0.00,,,0.00,WUHU216HW,2013-01-22 20:25:00,
2013-01-22 15:30:00,36.5,8.6,29.99,NW,315,0.4,1.1,31,0.00,,,0.00,WUHU216HW,2013-01-22 20:30:00,
2013-01-22 15:35:00,36.4,8.5,29.99,NNE,23,1.1,1.1,31,0.00,,,0.00,WUHU216HW,2013-01-22 20:35:00,
2013-01-22 15:40:00,36.4,9.2,29.99,NE,45,1.1,1.1,32,0.00,,,0.00,WUHU216HW,2013-01-22 20:40:00,
2013-01-22 15:45:00,36.2,8.4,29.99,North,0,0.4,1.6,31,0.00,,,0.00,WUHU216HW,2013-01-22 20:45:00,
2013-01-22 15:50:00,35.6,8.5,29.99,ESE,113,1.3,1.6,32,0.00,,,0.00,WUHU216HW,2013-01-22 20:50:00,
2013-01-22 15:55:00,35.6,8.5,29.99,ESE,113,1.1,2.5,32,0.00,,,0.00,WUHU216HW,2013-01-22 20:55:00,
2013-01-22 16:00:00,36.0,9.5,29.99,NNW,338,0.4,2.5,33,0.00,,,0.00,WUHU216HW,2013-01-22 21:00:00,
2013-01-22 16:05:00,37.1,10.4,29.99,West,270,1.8,2.7,33,0.00,,,0.00,WUHU216HW,2013-01-22 21:05:00,
2013-01-22 16:10:00,36.7,9.5,30.00,NW,315,0.2,2.7,32,0.00,,,0.00,WUHU216HW,2013-01-22 21:10:00,
2013-01-22 16:15:00,35.5,9.0,30.00,NNW,338,0.4,3.6,33,0.00,,,0.00,WUHU216HW,2013-01-22 21:15:00,
2013-01-22 16:20:00,34.9,8.6,30.00,West,270,0.9,3.6,33,0.00,,,0.00,WUHU216HW,2013-01-22 21:20:00,
2013-01-22 16:26:00,34.4,8.1,30.00,NNW,338,2.7,2.7,33,0.00,,,0.00,WUHU216HW,2013-01-22 21:26:00,
2013-01-22 16:31:00,34.0,8.5,30.00,NNE,23,1.6,2.7,34,0.00,,,0.00,WUHU216HW,2013-01-22 21:31:00,
2013-01-22 16:36:00,33.7,8.7,30.01,NNW,338,0.4,3.1,35,0.00,,,0.00,WUHU216HW,2013-01-22 21:36:00,
2013-01-22 16:41:00,34.0,9.7,30.01,NNW,338,3.4,3.4,36,0.00,,,0.00,WUHU216HW,2013-01-22 21:41:00,
2013-01-22 16:46:00,34.2,9.2,30.00,NW,315,0.4,3.6,35,0.00,,,0.00,WUHU216HW,2013-01-22 21:46:00,
2013-01-22 16:51:00,34.2,9.2,30.00,NNE,23,1.3,3.6,35,0.00,,,0.00,WUHU216HW,2013-01-22 21:51:00,
2013-01-22 16:56:00,34.2,9.8,30.02,NNE,23,1.3,2.5,36,0.00,,,0.00,WUHU216HW,2013-01-22 21:56:00,
2013-01-22 17:01:00,33.5,9.2,30.02,NNE,23,1.6,2.0,36,0.00,,,0.00,WUHU216HW,2013-01-22 22:01:00,
2013-01-22 17:06:00,32.8,9.2,30.01,SE,135,2.0,2.7,37,0.00,,,0.00,WUHU216HW,2013-01-22 22:06:00,
2013-01-22 17:11:00,32.6,9.0,30.02,NE,45,1.8,2.7,37,0.00,,,0.00,WUHU216HW,2013-01-22 22:11:00,
2013-01-22 17:16:00,32.2,8.7,30.02,WNW,293,2.5,3.8,37,0.00,,,0.00,WUHU216HW,2013-01-22 22:16:00,
2013-01-22 17:21:00,31.7,8.2,30.02,NNW,338,0.7,3.8,37,0.00,,,0.00,WUHU216HW,2013-01-22 22:21:00,
2013-01-22 17:26:00,31.5,8.1,30.01,NNW,338,0.7,3.4,37,0.00,,,0.00,WUHU216HW,2013-01-22 22:26:00,
2013-01-22 17:31:00,31.3,7.9,30.02,North,0,0.4,3.4,37,0.00,,,0.00,WUHU216HW,2013-01-22 22:31:00,
2013-01-22 17:36:00,31.1,7.7,29.97,WNW,293,0.0,2.7,37,0.00,,,0.00,WUHU216HW,2013-01-22 22:36:00,
2013-01-22 17:41:00,31.0,7.6,29.97,North,0,2.2,2.7,37,0.00,,,0.00,WUHU216HW,2013-01-22 22:41:00,
2013-01-22 17:46:00,30.6,7.3,29.97,NNE,23,1.1,2.2,37,0.00,,,0.00,WUHU216HW,2013-01-22 22:46:00,
2013-01-22 17:51:00,30.6,7.9,29.97,WSW,248,0.4,2.2,38,0.00,,,0.00,WUHU216HW,2013-01-22 22:51:00,
2013-01-22 17:56:00,30.4,7.8,29.98,WNW,293,0.2,2.2,38,0.00,,,0.00,WUHU216HW,2013-01-22 22:56:00,
2013-01-22 18:01:00,30.2,7.6,29.96,NE,45,1.6,1.6,38,0.00,,,0.00,WUHU216HW,2013-01-22 23:01:00,
2013-01-22 18:07:00,30.1,7.4,29.97,NNW,338,0.2,1.6,38,0.00,,,0.00,WUHU216HW,2013-01-22 23:07:00,
2013-01-22 18:12:00,29.9,7.2,29.98,WNW,293,0.0,3.1,38,0.00,,,0.00,WUHU216HW,2013-01-22 23:12:00,
2013-01-22 18:17:00,29.7,7.8,29.97,NNW,338,0.4,3.1,39,0.00,,,0.00,WUHU216HW,2013-01-22 23:17:00,
2013-01-22 18:22:00,29.5,7.6,29.97,SW,225,0.0,0.9,39,0.00,,,0.00,WUHU216HW,2013-01-22 23:22:00,
2013-01-22 18:27:00,29.3,7.4,29.97,SW,225,0.0,0.4,39,0.00,,,0.00,WUHU216HW,2013-01-22 23:27:00,
2013-01-22 18:32:00,29.2,7.2,29.97,WSW,248,0.0,0.4,39,0.00,,,0.00,WUHU216HW,2013-01-22 23:32:00,
2013-01-22 18:37:00,29.0,7.0,29.98,West,270,0.9,0.9,39,0.00,,,0.00,WUHU216HW,2013-01-22 23:37:00,
2013-01-22 18:42:00,28.8,6.9,30.02,NNW,338,0.4,0.9,39,0.00,,,0.00,WUHU216HW,2013-01-22 23:42:00,
2013-01-22 18:47:00,28.6,6.8,30.02,West,270,1.6,1.6,39,0.00,,,0.00,WUHU216HW,2013-01-22 23:47:00,
2013-01-22 18:52:00,28.4,6.6,30.01,WNW,293,0.0,1.6,39,0.00,,,0.00,WUHU216HW,2013-01-22 23:52:00,
2013-01-22 18:57:00,28.4,6.6,30.02,NW,315,0.0,1.3,39,0.00,,,0.00,WUHU216HW,2013-01-22 23:57:00,
2013-01-22 19:02:00,28.3,6.4,30.02,NNE,23,0.0,0.4,39,0.00,,,0.00,WUHU216HW,2013-01-23 00:02:00,
2013-01-22 19:07:00,28.1,6.2,30.01,NNW,338,0.4,1.8,39,0.00,,,0.00,WUHU216HW,2013-01-23 00:07:00,
2013-01-22 19:12:00,27.9,6.1,30.01,NW,315,0.7,1.8,39,0.00,,,0.00,WUHU216HW,2013-01-23 00:12:00,
2013-01-22 19:17:00,27.7,6.0,30.01,NNE,23,2.5,2.5,39,0.00,,,0.00,WUHU216HW,2013-01-23 00:17:00,
2013-01-22 19:22:00,27.7,6.0,30.01,NW,315,0.0,2.5,39,0.00,,,0.00,WUHU216HW,2013-01-23 00:22:00,
2013-01-22 19:27:00,27.5,5.8,30.01,SW,225,0.0,0.7,39,0.00,,,0.00,WUHU216HW,2013-01-23 00:27:00,
2013-01-22 19:32:00,27.4,6.2,30.02,West,270,0.0,0.4,40,0.00,,,0.00,WUHU216HW,2013-01-23 00:32:00,
2013-01-22 19:37:00,27.2,6.0,30.02,NW,315,0.2,0.4,40,0.00,,,0.00,WUHU216HW,2013-01-23 00:37:00,
2013-01-22 19:42:00,27.0,6.0,30.02,ENE,68,1.3,1.3,40,0.00,,,0.00,WUHU216HW,2013-01-23 00:42:00,
2013-01-22 19:47:00,27.0,6.0,30.02,NW,315,0.0,1.3,40,0.00,,,0.00,WUHU216HW,2013-01-23 00:47:00,
2013-01-22 19:52:00,26.6,5.6,30.03,NNW,338,0.7,0.9,40,0.00,,,0.00,WUHU216HW,2013-01-23 00:52:00,
2013-01-22 19:57:00,26.5,6.0,30.03,WNW,293,0.0,0.9,41,0.00,,,0.00,WUHU216HW,2013-01-23 00:57:00,
2013-01-22 20:02:00,26.3,5.8,30.03,ENE,68,0.9,1.3,41,0.00,,,0.00,WUHU216HW,2013-01-23 01:02:00,
2013-01-22 20:07:00,26.3,5.8,30.03,SW,225,0.2,1.3,41,0.00,,,0.00,WUHU216HW,2013-01-23 01:07:00,
2013-01-22 20:12:00,26.1,5.6,30.03,WNW,293,0.2,1.8,41,0.00,,,0.00,WUHU216HW,2013-01-23 01:12:00,
2013-01-22 20:17:00,25.9,5.4,30.04,West,270,0.2,1.8,41,0.00,,,0.00,WUHU216HW,2013-01-23 01:17:00,
2013-01-22 20:22:00,25.7,5.2,30.04,NNW,338,0.0,0.7,41,0.00,,,0.00,WUHU216HW,2013-01-23 01:22:00,
2013-01-22 20:27:00,25.6,5.6,30.05,NNE,23,1.1,1.1,42,0.00,,,0.00,WUHU216HW,2013-01-23 01:27:00,
2013-01-22 20:32:00,25.4,5.4,30.05,WNW,293,0.4,1.1,42,0.00,,,0.00,WUHU216HW,2013-01-23 01:32:00,
2013-01-22 20:37:00,25.2,5.2,30.05,WNW,293,0.2,1.1,42,0.00,,,0.00,WUHU216HW,2013-01-23 01:37:00,
2013-01-22 20:42:00,25.2,5.2,30.03,NNE,23,1.1,1.1,42,0.00,,,0.00,WUHU216HW,2013-01-23 01:42:00,
2013-01-22 20:47:00,25.0,5.1,30.05,East,90,0.0,1.1,42,0.00,,,0.00,WUHU216HW,2013-01-23 01:47:00,
2013-01-22 20:52:00,24.8,5.4,30.03,NW,315,0.4,2.5,43,0.00,,,0.00,WUHU216HW,2013-01-23 01:52:00,
2013-01-22 20:57:00,24.8,5.4,30.04,NE,45,1.1,2.5,43,0.00,,,0.00,WUHU216HW,2013-01-23 01:57:00,
2013-01-22 21:02:00,24.8,5.4,30.04,NW,315,0.2,1.1,43,0.00,,,0.00,WUHU216HW,2013-01-23 02:02:00,
2013-01-22 21:07:00,24.8,5.4,30.03,NE,45,0.4,1.1,43,0.00,,,0.00,WUHU216HW,2013-01-23 02:07:00,
2013-01-22 21:12:00,24.8,5.4,30.03,SE,135,0.7,0.7,43,0.00,,,0.00,WUHU216HW,2013-01-23 02:12:00,
2013-01-22 21:17:00,24.8,6.0,30.03,WNW,293,0.0,0.7,44,0.00,,,0.00,WUHU216HW,2013-01-23 02:17:00,
2013-01-22 21:22:00,24.8,6.0,30.02,NNW,338,0.0,0.4,44,0.00,,,0.00,WUHU216HW,2013-01-23 02:22:00,
2013-01-22 21:27:00,24.8,6.0,30.03,NNW,338,0.4,1.1,44,0.00,,,0.00,WUHU216HW,2013-01-23 02:27:00,
2013-01-22 21:32:00,24.8,6.0,30.03,North,0,0.4,1.1,44,0.00,,,0.00,WUHU216HW,2013-01-23 02:32:00,
2013-01-22 21:37:00,24.8,6.0,30.02,NNE,23,0.4,0.9,44,0.00,,,0.00,WUHU216HW,2013-01-23 02:37:00,
2013-01-22 21:42:00,24.8,6.0,30.03,WNW,293,0.4,0.9,44,0.00,,,0.00,WUHU216HW,2013-01-23 02:42:00,
2013-01-22 21:47:00,24.8,6.4,30.02,NNW,338,0.2,1.1,45,0.00,,,0.00,WUHU216HW,2013-01-23 02:47:00,
2013-01-22 21:52:00,24.8,6.4,30.03,WNW,293,1.1,1.1,45,0.00,,,0.00,WUHU216HW,2013-01-23 02:52:00,
2013-01-22 21:57:00,24.8,6.4,30.03,NNE,23,0.4,1.1,45,0.00,,,0.00,WUHU216HW,2013-01-23 02:57:00,
2013-01-22 22:02:00,24.8,6.4,30.03,North,0,1.6,1.8,45,0.00,,,0.00,WUHU216HW,2013-01-23 03:02:00,
2013-01-22 22:07:00,24.7,6.2,30.03,SSW,203,1.1,1.8,45,0.00,,,0.00,WUHU216HW,2013-01-23 03:07:00,
2013-01-22 22:12:00,24.7,6.2,30.03,WNW,293,0.4,1.1,45,0.00,,,0.00,WUHU216HW,2013-01-23 03:12:00,
2013-01-22 22:18:00,24.5,6.6,30.03,NNE,23,0.2,2.0,46,0.00,,,0.00,WUHU216HW,2013-01-23 03:18:00,
2013-01-22 22:23:00,24.5,6.6,30.03,West,270,0.4,2.0,46,0.00,,,0.00,WUHU216HW,2013-01-23 03:23:00,
2013-01-22 22:28:00,24.5,6.0,30.02,NW,315,0.0,0.4,45,0.00,,,0.00,WUHU216HW,2013-01-23 03:28:00,
2013-01-22 22:33:00,24.5,6.6,30.02,SE,135,0.4,0.7,46,0.00,,,0.00,WUHU216HW,2013-01-23 03:33:00,
2013-01-22 22:38:00,24.5,6.0,30.03,WNW,293,0.0,1.1,45,0.00,,,0.00,WUHU216HW,2013-01-23 03:38:00,
2013-01-22 22:43:00,24.3,6.0,30.03,SSE,158,0.0,1.1,45,0.00,,,0.00,WUHU216HW,2013-01-23 03:43:00,
2013-01-22 22:48:00,24.3,6.4,30.04,South,180,0.0,0.2,46,0.00,,,0.00,WUHU216HW,2013-01-23 03:48:00,
2013-01-22 22:53:00,24.3,6.4,30.03,WSW,248,0.7,0.7,46,0.00,,,0.00,WUHU216HW,2013-01-23 03:53:00,
2013-01-22 22:58:00,24.3,6.4,30.04,West,270,0.4,0.7,46,0.00,,,0.00,WUHU216HW,2013-01-23 03:58:00,
2013-01-22 23:03:00,24.3,6.8,30.04,WNW,293,0.4,0.9,47,0.00,,,0.00,WUHU216HW,2013-01-23 04:03:00,
2013-01-22 23:08:00,24.3,6.8,30.03,NW,315,0.0,0.9,47,0.00,,,0.00,WUHU216HW,2013-01-23 04:08:00,
2013-01-22 23:13:00,24.3,6.8,30.03,SSW,203,0.0,0.4,47,0.00,,,0.00,WUHU216HW,2013-01-23 04:13:00,
2013-01-22 23:18:00,24.3,7.4,30.03,South,180,1.1,1.1,48,0.00,,,0.00,WUHU216HW,2013-01-23 04:18:00,
2013-01-22 23:23:00,24.3,7.4,30.03,SW,225,0.0,1.1,48,0.00,,,0.00,WUHU216HW,2013-01-23 04:23:00,
2013-01-22 23:28:00,24.3,7.4,30.03,SSW,203,0.2,0.2,48,0.00,,,0.00,WUHU216HW,2013-01-23 04:28:00,
2013-01-22 23:33:00,24.3,7.8,30.03,SSE,158,0.2,0.2,49,0.00,,,0.00,WUHU216HW,2013-01-23 04:33:00,
2013-01-22 23:38:00,24.5,8.0,30.03,ESE,113,0.0,0.4,49,0.00,,,0.00,WUHU216HW,2013-01-23 04:38:00,
2013-01-22 23:43:00,24.5,8.0,30.04,East,90,0.2,0.4,49,0.00,,,0.00,WUHU216HW,2013-01-23 04:43:00,
2013-01-22 23:48:00,24.7,8.2,30.04,East,90,0.0,0.4,49,0.00,,,0.00,WUHU216HW,2013-01-23 04:48:00,
2013-01-22 23:53:00,24.7,8.6,30.04,WNW,293,0.4,0.7,50,0.00,,,0.00,WUHU216HW,2013-01-23 04:53:00,
2013-01-22 23:58:00,24.7,9.1,30.02,WNW,293,0.0,0.7,51,0.00,,,0.00,WUHU216HW,2013-01-23 04:58:00,